Shin Mei Maru — JG5617 — position and weather

sailwx.info

Track history (hours):
 
Tides and Currents Weather Stations Pressure Air Temp Water Temp Dewpoint Dewpoint Depression Visibility Wind Speed Wind Dir Waves Ship Positions

Shin Mei Maru

Last reported at 2014-Oct-23 22:33 UTC. Time now 2014-Oct-24 10:21 UTC.
Position N 35°37' E 139°46'.

Length 160 m; draft 6.8 m.

Type: Cargo ship. MMSI: 431100922.

Date/timePositionNaut miles runAvg speedWind from/ knotsBaromVisibWave heightAir tempDewpointWater temp
2014-Oct-23 22:33N 35°37' E 139°46'1211.9
2014-Oct-23 21:33N 35°25' E 139°47'1111.2
2014-Oct-23 20:33N 35°14' E 139°47'  
2014-Oct-19 11:30N 35°05' E 139°43'1414.4
2014-Oct-19 10:33N 35°18' E 139°44'1515.0
2014-Oct-19 09:33N 35°32' E 139°51'6 0.9
2014-Oct-19 03:32N 35°37' E 139°46'1212.8
2014-Oct-19 02:33N 35°24' E 139°46'1212.0
2014-Oct-19 01:33N 35°12' E 139°47'24816.3
2014-Oct-18 10:22N 34°01' E 134°58'1619.9
2014-Oct-18 09:33N 34°17' E 134°59'1918.8
2014-Oct-18 08:33N 34°31' E 135°14'1110.8
2014-Oct-18 07:33N 34°37' E 135°25'0 0.0
2014-Oct-18 06:30N 34°37' E 135°25'0 0.0
2014-Oct-18 05:12N 34°37' E 135°25'0 0.0
2014-Oct-18 04:30N 34°37' E 135°25'0 0.0
2014-Oct-18 03:30N 34°37' E 135°25'0 0.0
2014-Oct-18 02:18N 34°37' E 135°25'0 0.0
2014-Oct-18 01:12N 34°37' E 135°25'0 0.0
2014-Oct-18 00:33N 34°37' E 135°25'1110.9
2014-Oct-17 23:33N 34°31' E 135°14'1818.4
2014-Oct-17 22:33N 34°17' E 134°59'1918.7
2014-Oct-17 21:33N 33°58' E 134°59'23817.0
2014-Oct-17 07:33N 35°03' E 139°37'1615.7
2014-Oct-17 06:33N 35°17' E 139°45'1313.1
2014-Oct-17 05:34N 35°29' E 139°51'10 1.4
2014-Oct-16 22:22N 35°38' E 139°46'3 4.2
2014-Oct-16 21:33N 35°35' E 139°48'1212.1
2014-Oct-16 20:34N 35°23' E 139°46'1111.4
2014-Oct-16 19:33N 35°12' E 139°47'  
Track history (hours):
 
Tides and Currents Weather Stations Pressure Air Temp Water Temp Dewpoint Dewpoint Depression Visibility Wind Speed Wind Dir Waves Ship Positions

Shin Mei Maru

Last reported at 2014-Oct-23 22:33 UTC. Time now 2014-Oct-24 10:21 UTC.
Position N 35°37' E 139°46'.

Length 160 m; draft 6.8 m.

Type: Cargo ship. MMSI: 431100922.

Date/timePositionNaut miles runAvg speedWind from/ knotsBaromVisibWave heightAir tempDewpointWater temp
2014-Oct-23 22:33N 35°37' E 139°46'1211.9
2014-Oct-23 21:33N 35°25' E 139°47'1111.2
2014-Oct-23 20:33N 35°14' E 139°47'  
2014-Oct-19 11:30N 35°05' E 139°43'1414.4
2014-Oct-19 10:33N 35°18' E 139°44'1515.0
2014-Oct-19 09:33N 35°32' E 139°51'6 0.9
2014-Oct-19 03:32N 35°37' E 139°46'1212.8
2014-Oct-19 02:33N 35°24' E 139°46'1212.0
2014-Oct-19 01:33N 35°12' E 139°47'24816.3
2014-Oct-18 10:22N 34°01' E 134°58'1619.9
2014-Oct-18 09:33N 34°17' E 134°59'1918.8
2014-Oct-18 08:33N 34°31' E 135°14'1110.8
2014-Oct-18 07:33N 34°37' E 135°25'0 0.0
2014-Oct-18 06:30N 34°37' E 135°25'0 0.0
2014-Oct-18 05:12N 34°37' E 135°25'0 0.0
2014-Oct-18 04:30N 34°37' E 135°25'0 0.0
2014-Oct-18 03:30N 34°37' E 135°25'0 0.0
2014-Oct-18 02:18N 34°37' E 135°25'0 0.0
2014-Oct-18 01:12N 34°37' E 135°25'0 0.0
2014-Oct-18 00:33N 34°37' E 135°25'1110.9
2014-Oct-17 23:33N 34°31' E 135°14'1818.4
2014-Oct-17 22:33N 34°17' E 134°59'1918.7
2014-Oct-17 21:33N 33°58' E 134°59'23817.0
2014-Oct-17 07:33N 35°03' E 139°37'1615.7
2014-Oct-17 06:33N 35°17' E 139°45'1313.1
2014-Oct-17 05:34N 35°29' E 139°51'10 1.4
2014-Oct-16 22:22N 35°38' E 139°46'3 4.2
2014-Oct-16 21:33N 35°35' E 139°48'1212.1
2014-Oct-16 20:34N 35°23' E 139°46'1111.4
2014-Oct-16 19:33N 35°12' E 139°47'  

Dump ship's entire track history